Wind_Speed
35 35 37 32 26 26 30 29 26 23 24 28 26 27 26 25 27 27 28 30 31 32 29 30 38 34 35 35 32 32 33 34 35 36 35 33 34 37 40 41 40 41 42
39 36 37 31 31 29 30 28 30 31 24 26 26 25 26 26 23 30 31 32 33 34 40 39 40 38 40 36 35 37 36 37 36 35 35 37 37 36 38 43 44 45 45
35 39 37 37 36 36 35 37 35 35 37 34 29 26 29 31 33 34 32 36 40 44 43 43 43 40 41 42 44 42 41 44 43 43 43 42 44 45 46 46 46 45 48
33 36 41 42 43 41 40 39 38 36 33 29 26 26 28 30 33 34 41 45 45 44 45 44 45 46 47 46 49 46 49 53 52 53 49 51 53 55 57 56 55 53 51
30 30 34 41 41 42 43 43 40 38 38 37 39 31 33 35 40 43 45 45 45 47 50 51 52 53 54 56 58 61 61 60 58 55 57 57 63 63 59 57 57 56 56
55 54 50 48 47 47 46 41 43 42 42 42 39 40 39 43 47 47 48 47 51 52 53 54 55 56 58 60 59 61 61 62 60 60 57 61 63 63 64 60 62 60 60
57 58 54 53 50 49 46 45 46 46 45 41 39 45 47 49 53 47 43 54 54 58 55 56 59 61 61 59 60 61 60 61 61 61 58 59 63 66 67 64 60 65 66
53 52 52 50 48 48 49 50 51 51 50 52 51 48 47 45 40 53 53 56 56 55 55 57 58 58 57 56 55 55 56 58 57 58 56 58 61 62 65 67 60 62 63
57 57 57 59 59 55 53 50 51 48 47 42 42 41 45 51 53 52 52 55 53 53 52 53 53 52 49 48 52 53 55 55 58 62 56 56 60 63 62 63 65 75 64
54 57 59 58 58 57 58 58 56 57 60 59 56 52 50 49 48 50 52 49 50 49 46 46 48 50 50 53 55 56 57 56 56 57 55 53 53 52 56 60 67 70 75
52 51 54 54 55 56 57 56 55 57 56 52 49 48 48 49 49 50 48 47 47 45 47 48 52 54 54 54 56 58 59 59 60 56 55 55 53 54 50 56 60 66 72
50 49 52 50 48 47 47 47 48 48 48 46 43 43 44 47 49 45 43 44 45 50 51 55 55 52 52 54 56 57 59 62 64 61 56 57 58 58 61 61 59 64 64
44 42 43 46 46 45 45 42 41 42 43 42 40 40 44 44 47 42 39 45 42 44 48 50 51 54 56 58 59 59 59 62 65 59 58 57 60 64 66 68 71 72 71
32 36 37 42 44 45 45 44 42 42 42 39 40 37 38 36 35 37 41 42 42 44 47 50 52 54 56 59 58 58 62 62 63 61 62 58 56 56 66 72 74 75 75
36 37 38 34 33 35 36 38 40 38 35 34 34 37 35 33 37 39 38 40 43 46 50 52 55 55 58 59 58 60 62 64 64 66 64 61 59 59 61 63 72 75 77
40 41 41 42 40 39 39 38 39 36 35 37 36 35 32 32 36 37 38 42 46 49 53 56 58 57 60 60 60 62 64 66 66 66 65 63 64 66 65 66 67 70 71
40 42 43 44 42 41 41 41 39 41 40 38 33 32 33 34 35 37 42 46 50 53 57 59 60 60 62 60 62 65 66 69 68 69 65 66 64 65 67 66 69 70 70
39 42 44 45 45 42 40 42 41 42 42 39 35 33 34 35 38 41 47 49 54 58 61 62 62 65 62 63 66 67 69 70 71 70 67 68 69 69 65 66 66 69 71
40 42 43 43 43 41 40 41 40 42 40 34 31 34 36 40 46 46 51 53 58 62 64 65 66 68 64 65 69 72 71 72 74 70 75 73 69 62 60 60 62 65 69
45 42 43 41 40 40 39 40 40 43 38 35 37 39 44 45 48 52 56 60 62 66 66 67 70 69 69 70 72 76 74 75 75 78 76 70 63 57 55 54 55 58 64
42 42 43 40 39 40 41 39 42 43 42 41 40 43 47 48 52 57 59 65 67 67 68 70 71 70 72 74 76 75 79 78 82 77 74 63 55 50 49 47 45 46 49
42 41 41 37 39 40 38 39 37 37 38 41 42 46 48 52 56 59 62 66 67 69 70 71 70 71 74 78 77 78 80 81 83 80 69 58 50 44 41 40 37 41 42
37 37 36 36 38 38 38 37 35 38 41 44 47 48 52 56 59 62 65 66 67 70 70 71 71 73 76 79 78 80 82 84 83 83 68 54 50 44 35 33 34 36 39
33 31 33 35 37 39 39 38 37 41 46 47 50 51 55 59 61 63 64 66 69 70 70 72 73 76 78 78 80 82 85 86 82 81 67 57 46 41 34 31 31 34 35
29 30 29 34 38 40 42 41 41 42 45 48 52 55 58 60 62 64 65 68 69 70 71 72 73 77 78 79 81 85 88 85 85 75 62 54 45 38 33 30 29 30 34
36 34 38 40 40 41 42 46 47 48 50 53 56 59 61 61 62 66 68 68 69 70 71 73 75 77 79 81 85 89 86 91 80 67 57 49 41 36 36 35 35 33 32
Wind_Direction
259 262 253 258 268 273 274 277 282 287 294 292 296 293 288 287 278 291 290 291 289 294 295 296 308 307 309 304 293 288 287 286 283 280 279 277 277 275 276 276 272 271 272
257 255 258 254 262 267 270 278 283 284 289 283 289 287 296 296 291 294 290 289 290 287 297 307 308 304 304 299 294 291 292 290 281 277 276 276 274 276 277 278 274 271 268
262 257 255 257 263 270 274 276 280 284 287 289 286 285 290 286 288 286 288 300 303 302 307 304 301 296 293 291 293 285 282 284 279 276 276 272 270 273 280 277 272 271 271
267 254 253 261 269 273 278 283 286 283 283 284 287 284 273 280 276 294 293 299 295 300 298 296 294 292 292 288 288 282 279 280 278 277 272 272 272 275 278 273 272 268 267
253 264 263 265 266 271 278 281 282 279 279 279 281 272 269 278 287 290 285 288 290 291 293 293 291 290 290 292 291 290 288 285 281 279 275 273 270 271 272 269 266 265 264
259 265 270 269 270 275 276 278 274 276 274 275 276 272 272 275 279 281 282 284 292 296 293 295 294 292 290 290 290 288 288 284 282 277 278 272 270 269 269 266 262 262 262
256 260 267 269 268 269 272 273 271 272 277 276 277 281 283 279 279 286 282 294 291 294 295 293 292 290 291 291 290 290 287 285 282 281 276 274 268 266 265 264 263 263 260
259 260 261 267 265 265 266 270 274 273 273 273 279 280 278 277 279 288 288 290 290 292 292 291 293 293 294 293 291 290 288 287 287 284 281 271 271 268 264 263 258 263 260
265 267 270 272 273 277 276 277 278 275 279 275 276 280 276 282 287 288 290 292 293 293 292 290 290 291 289 288 288 289 289 291 287 284 281 277 273 270 267 263 258 250 254
266 270 272 272 272 273 275 274 267 269 278 281 287 287 286 285 288 290 290 290 289 287 286 287 286 290 288 290 291 292 291 292 293 288 285 281 278 274 274 266 260 254 253
264 267 269 272 273 274 275 275 276 277 280 283 285 285 289 291 292 290 288 288 284 278 281 286 288 294 297 297 295 293 291 292 293 292 285 281 278 272 270 270 263 259 254
268 269 269 270 272 273 275 277 278 278 278 280 282 288 291 290 287 286 284 286 284 280 282 289 296 298 298 298 299 295 292 294 296 294 291 287 280 273 268 260 258 263 258
280 274 269 270 271 273 276 277 278 278 276 280 282 286 286 287 287 281 282 290 292 295 297 299 300 300 300 304 304 299 297 295 297 298 294 288 281 275 271 268 265 263 261
284 286 282 274 272 271 274 275 275 278 281 282 284 291 288 282 274 276 287 293 299 301 302 303 303 305 306 306 301 300 299 301 302 301 300 294 289 282 271 267 266 265 261
282 283 284 283 282 280 280 278 276 280 282 290 290 290 282 277 280 286 292 297 300 303 306 307 307 308 310 305 301 302 303 305 305 304 301 292 289 285 281 274 265 262 261
289 286 285 281 281 282 283 283 284 286 292 292 291 280 276 282 287 290 295 299 303 307 309 309 309 310 310 304 303 306 308 310 305 306 302 293 290 284 280 273 269 264 260
289 286 285 284 282 280 281 282 284 290 291 288 279 279 282 288 290 296 298 300 304 308 311 310 310 311 309 307 307 309 312 310 307 304 302 299 290 290 283 276 264 262 262
290 289 286 285 284 283 282 282 281 281 285 282 276 278 282 296 298 300 302 303 307 311 311 312 312 313 312 309 310 312 312 309 307 304 306 306 298 291 286 277 270 262 259
297 290 286 285 283 282 280 281 278 278 281 279 284 289 297 300 299 300 305 307 310 312 312 313 313 313 313 312 314 315 314 313 310 310 310 308 301 293 284 275 268 264 260
296 291 284 283 283 281 281 277 276 279 285 284 288 296 297 295 301 305 306 310 312 312 314 314 314 315 315 315 317 317 316 315 316 315 315 309 302 294 286 277 269 264 261
290 288 282 282 282 282 281 277 273 274 277 284 290 293 292 299 302 303 307 310 312 313 313 314 316 315 316 318 319 318 318 320 319 318 317 310 302 296 289 280 274 268 262
288 286 287 287 285 284 284 281 278 283 291 295 295 293 295 298 300 305 309 311 312 312 314 315 316 315 317 318 320 321 322 324 322 320 319 311 304 299 289 283 279 271 264
289 287 289 287 286 287 281 280 285 291 293 293 291 294 298 299 302 306 309 310 311 312 313 315 315 316 318 319 322 324 325 324 324 324 318 312 308 302 289 278 272 268 270
290 286 289 292 287 288 282 282 282 286 289 293 293 294 297 302 305 307 309 309 310 313 314 314 317 316 318 321 324 325 325 324 323 322 315 312 308 299 289 281 272 263 259
286 291 298 307 297 293 291 286 286 289 291 294 296 300 303 305 306 307 307 309 311 313 315 316 315 317 320 324 325 326 326 326 324 321 313 310 307 294 282 282 281 271 261
279 283 292 291 295 294 296 295 296 298 299 299 300 302 303 303 304 305 308 310 312 314 315 316 317 319 323 325 327 327 329 328 324 320 313 307 303 285 282 283 281 279 269
Height
10972 10972 10972 10971 10972 10972 10972 10972 10972 10972 10971 10971 10970 10969 10968 10967 10967 10967 10966 10965 10964 10963 10962 10961 10959 10958 10958 10958 10956 10955 10953 10951 10950 10949 10948 10948 10948 10948 10946 10945 10946 10944 10942
10968 10968 10969 10968 10967 10969 10968 10969 10969 10968 10968 10967 10967 10966 10965 10964 10963 10963 10961 10960 10958 10956 10955 10953 10951 10950 10950 10949 10949 10948 10946 10945 10943 10941 10941 10939 10938 10937 10937 10936 10936 10937 10936
10964 10965 10965 10965 10964 10966 10966 10966 10966 10965 10964 10963 10963 10962 10961 10960 10959 10957 10956 10954 10951 10949 10947 10945 10944 10943 10942 10941 10940 10939 10938 10937 10935 10934 10934 10930 10928 10927 10927 10928 10926 10925 10925
10959 10960 10961 10961 10961 10961 10962 10961 10960 10960 10959 10958 10957 10956 10955 10955 10953 10952 10950 10948 10946 10943 10942 10939 10937 10935 10933 10931 10930 10928 10927 10927 10925 10924 10923 10922 10917 10917 10916 10915 10913 10913 10912
10956 10956 10957 10956 10956 10956 10957 10956 10955 10954 10954 10953 10953 10951 10951 10949 10948 10946 10944 10941 10939 10937 10935 10932 10929 10926 10924 10921 10918 10916 10913 10912 10910 10911 10911 10911 10902 10899 10903 10901 10899 10899 10899
10949 10950 10951 10951 10951 10950 10950 10950 10949 10947 10946 10946 10946 10945 10945 10943 10941 10938 10935 10932 10930 10928 10925 10922 10919 10916 10912 10908 10905 10902 10899 10897 10894 10895 10897 10895 10889 10886 10885 10890 10887 10887 10887
10945 10946 10945 10945 10945 10944 10943 10943 10942 10941 10940 10939 10940 10939 10938 10936 10932 10929 10926 10924 10920 10917 10915 10911 10907 10904 10901 10897 10892 10888 10885 10882 10880 10879 10882 10876 10875 10872 10871 10873 10877 10873 10873
10939 10939 10939 10939 10939 10938 10937 10937 10935 10934 10934 10933 10932 10930 10928 10926 10923 10920 10916 10914 10911 10908 10904 10900 10897 10893 10888 10884 10879 10875 10872 10868 10865 10863 10866 10861 10856 10856 10855 10855 10860 10853 10852
10930 10931 10931 10930 10929 10928 10928 10927 10926 10926 10926 10926 10924 10922 10920 10917 10914 10910 10907 10905 10901 10897 10893 10890 10887 10883 10879 10875 10869 10864 10860 10857 10851 10850 10852 10846 10842 10840 10839 10838 10837 10837 10836
10924 10926 10923 10922 10922 10922 10920 10919 10919 10918 10918 10918 10916 10913 10911 10907 10904 10900 10898 10895 10890 10888 10885 10881 10877 10875 10870 10865 10859 10852 10846 10844 10838 10837 10837 10832 10828 10825 10821 10820 10818 10819 10819
10916 10920 10914 10914 10913 10913 10911 10910 10909 10910 10910 10909 10908 10905 10902 10898 10894 10892 10888 10886 10883 10880 10875 10873 10868 10864 10858 10852 10846 10840 10833 10829 10824 10824 10820 10817 10815 10810 10805 10802 10798 10801 10804
10907 10911 10905 10906 10907 10905 10903 10901 10901 10901 10901 10900 10899 10895 10893 10889 10886 10883 10880 10877 10874 10871 10868 10863 10857 10852 10847 10840 10835 10828 10820 10812 10807 10807 10805 10801 10797 10792 10787 10784 10780 10781 10784
10896 10902 10900 10896 10898 10899 10896 10894 10894 10892 10892 10892 10890 10888 10884 10881 10878 10876 10873 10870 10865 10861 10856 10851 10845 10841 10834 10827 10819 10811 10806 10799 10791 10790 10787 10781 10776 10771 10766 10764 10762 10762 10765
10896 10892 10892 10890 10889 10891 10890 10887 10887 10884 10884 10887 10880 10879 10876 10873 10869 10867 10865 10860 10856 10851 10847 10841 10836 10829 10822 10814 10805 10799 10790 10783 10775 10772 10764 10763 10757 10752 10747 10742 10739 10736 10739
10893 10892 10890 10887 10884 10882 10883 10879 10878 10878 10876 10875 10875 10871 10867 10865 10861 10858 10856 10851 10846 10841 10836 10830 10824 10818 10810 10800 10792 10786 10777 10768 10759 10753 10748 10742 10736 10730 10726 10723 10718 10713 10712
10885 10886 10888 10885 10882 10879 10876 10874 10872 10871 10869 10867 10866 10862 10859 10856 10852 10849 10846 10841 10836 10831 10825 10819 10812 10805 10798 10787 10779 10771 10762 10754 10743 10737 10728 10722 10716 10709 10703 10700 10697 10692 10694
10875 10874 10878 10879 10877 10873 10870 10868 10866 10863 10861 10859 10858 10854 10852 10848 10844 10840 10836 10832 10826 10821 10814 10807 10799 10793 10784 10774 10765 10756 10748 10737 10728 10719 10712 10703 10692 10684 10679 10675 10672 10670 10671
10863 10863 10868 10870 10868 10865 10862 10860 10859 10856 10854 10850 10850 10845 10843 10839 10835 10833 10827 10822 10815 10810 10802 10794 10787 10778 10770 10759 10749 10742 10733 10721 10713 10703 10692 10683 10669 10660 10654 10647 10644 10644 10646
10855 10855 10858 10860 10860 10857 10853 10851 10850 10848 10846 10844 10840 10837 10834 10832 10827 10825 10816 10813 10806 10799 10791 10782 10772 10763 10755 10745 10735 10726 10715 10703 10690 10682 10670 10658 10644 10636 10629 10623 10620 10618 10621
10849 10851 10852 10851 10850 10848 10846 10844 10841 10839 10838 10835 10832 10830 10826 10825 10819 10814 10807 10800 10795 10787 10778 10768 10758 10747 10739 10730 10721 10706 10697 10685 10670 10659 10648 10634 10620 10615 10605 10602 10598 10596 10594
10847 10846 10844 10844 10842 10840 10838 10837 10834 10831 10829 10829 10826 10824 10819 10815 10811 10804 10799 10788 10783 10775 10766 10756 10745 10734 10724 10715 10705 10691 10677 10662 10647 10639 10627 10613 10603 10594 10586 10582 10578 10576 10575
10841 10841 10836 10836 10833 10834 10833 10831 10828 10825 10824 10821 10819 10815 10811 10807 10803 10795 10789 10780 10771 10764 10753 10743 10734 10722 10711 10698 10689 10675 10660 10648 10627 10614 10607 10594 10585 10579 10572 10565 10565 10558 10558
10834 10830 10826 10827 10825 10827 10826 10824 10822 10820 10816 10813 10810 10807 10803 10797 10792 10785 10777 10769 10762 10751 10741 10731 10722 10709 10698 10683 10672 10659 10644 10629 10613 10595 10584 10579 10567 10561 10560 10556 10554 10550 10544
10827 10819 10818 10818 10817 10818 10818 10816 10814 10812 10808 10806 10802 10800 10794 10787 10780 10772 10766 10756 10749 10739 10727 10717 10707 10694 10683 10670 10656 10642 10627 10612 10597 10585 10566 10559 10555 10546 10544 10542 10542 10540 10537
10818 10813 10809 10810 10809 10807 10807 10807 10804 10804 10801 10799 10793 10789 10782 10775 10766 10760 10754 10747 10736 10726 10715 10705 10693 10682 10669 10657 10643 10628 10611 10595 10578 10565 10554 10543 10539 10533 10530 10530 10528 10528 10525
10806 10803 10802 10799 10799 10796 10795 10794 10792 10791 10789 10788 10784 10776 10769 10765 10756 10749 10744 10736 10724 10714 10702 10690 10681 10668 10656 10643 10629 10611 10594 10577 10560 10547 10537 10528 10525 10520 10516 10517 10515 10514 10514